Regional Weather Roundup
Issued by NWS

Home | Current Version | Previous Version | Text Only | Print | Product List | Glossary On
Versions: 1 2 3 4 5 6 7 8 9 10 11 12 13 14 15 16 17 18 19 20 21 22 23 24 25 26 27 28 29 30 31 32 33 34 35 36 37 38 39 40 41 42 43 44 45 46 47 48 49 50
000
ASUS42 KKEY 242310
RWRKEY

FLORIDA REGIONAL WEATHER ROUNDUP FOR THE FLORIDA KEYS
NATIONAL WEATHER SERVICE KEY WEST FLORIDA
700 PM EDT SUN MAY 24 2015

...SOUTH FLORIDA AND THE KEYS...

CITY           SKY/WX    TMP DP  RH WIND       PRES   REMARKS
FORT MYERS     TSTM      78  73  84 SW9       30.07R
SW REGIONAL AP PTSUNNY   87  67  51 SE9       30.08R THUNDER HX  90
NAPLES         PTSUNNY   85  71  63 E6        30.08S HX  90
MIAMI          MOSUNNY   83  70  64 E15G21    30.11R
WEST KENDALL   MOSUNNY   83  72  69 E16G25    30.10S
HOMESTEAD      SUNNY     82  73  72 E13       30.09F
MARATHON       MOSUNNY   85  75  72 E13G20    30.07F HX  93
BOCA CHICA NAS SUNNY     85  73  67 E18       30.07S HX  91
KEY WEST INTL  SUNNY     84  74  71 E18       30.07F HX  91

...INTERNATIONAL WEATHER...

CITY           SKY/WX    TMP DP  RH WIND       PRES   REMARKS
NASSAU BAHAMAS PTSUNNY   82  73  74 E12       30.12R
CANCUN MEXICO  MOSUNNY   84  75  74 E12       29.98F HX  92
COZUMEL MEXICO PTSUNNY   82  75  78 SE7       29.98S

ADJACENT COASTAL WATERS...

STATION/POSITION TIME  SKY/WX   TEMP    WIND        PRES    WAVE
                                AIR SEA DIR/SP/G            HT/PER
                 (UTC)          (F)     (DEG/KT/KT) (MB)    (FT/S)
PULASKI SHOAL LI 2200            83      90/ 11/ 12 1018.0F
SAND KEY         2250            82      90/ 19/ 22 1018.0F
SOMBRERO KEY     2300            82      90/ 18/ 19 1018.8S
LONG KEY         2200            83 86  100/ 15/ 18 1019.5F
MOLASSES REEF    2300            82 84   80/ 17/ 19 1018.8S
FOWEY ROCKS      NOT AVBL

$$


USA.gov is the U.S. government's official web portal to all federal, state and local government web resources and services.